Погода в Ермиши

Россия / Рязанская область     54°46′08″N   42°16′05″E
темп.,
°C
ветер,
м/с
пор.,
м/с
влажн.,
%
обл.,
%
осадки,
мм/ч
давл.,
гПа
погр.,
м
22 мая, вс
вс2200:00+4в367694 0.0 100691
03:00+2всв497910 0.0 1006218
06:00+5всв368522 0.0 1003199
09:00+9св55605 0.0 10021050
12:00+11всв444891 0.0 10021907
15:00+11св444499 0.0 10011907
18:00+9ссв565741 0.0 10011386
21:00+3ссв510665 0.0 1003342
23 мая, пн
пн2300:00−1с37815 0.0 1003129
03:00−2ссз36885 0.0 1004113
06:00+1ссз47725 0.0 1004313
09:00+5сз5759100 0.0 10031522
12:00+5сз5756100 0.0 10031586
15:00+8сз5853100 0.0 10031672
18:00+9сз4759100 0.0 10031288
21:00+5зюз3571100 0.0 100270
24 мая, вт
вт2400:00+3з3475100 0.0 100257
03:00+3з31071100 0.0 1002262
06:00+5зсз51167100 0.0 10031253
09:00+4зсз5780100 0.2 1004862
12:00+5зсз4575100 0.7 10061115
15:00+7ссз4565100 1.3 10071292
18:00+6с4571100 0.4 1008999
21:00+1с33865 0.6 101143
25 мая, ср
ср2500:000сз22895 0.0 101122
03:00−1сз35929 0.0 101372
06:00+2сз36855 0.0 1014215
09:00+7сз456097 0.1 10141516
12:00+8сз455598 0.1 10141685
15:00+9зсз4553100 0.2 10141719
18:00+9з45606 0.0 10151077
21:00+4зсз228199 0.0 101514
26 мая, чт
чт2600:00+3зюз238281 0.0 101526
03:00+2зюз379078 0.0 1014121
06:00+5зюз3882100 0.0 1013252
09:00+9юз4671100 0.0 1011754
12:00+13з466391 0.0 10091399
15:00+16юз356044 0.1 10061246
18:00+15юз4778100 0.9 1003361
21:00+11ююз31199100 4.0 1002447